Regional Weather Roundup
Issued by NWS

Home | Current Version | Previous Version | Text Only | Print | Product List | Glossary Off
Versions: 1 2 3 4 5 6 7 8 9 10 11 12 13 14 15 16 17 18 19 20 21 22 23 24 25 26 27 28 29 30 31 32 33 34 35 36 37 38 39 40 41 42 43 44 45 46 47 48 49 50

000
ASUS43 KMPX 271710
RWRMN
WEATHER ROUNDUP FOR MINNESOTA
NATIONAL WEATHER SERVICE TWIN CITIES/CHANHASSEN MN
1200 PM CDT TUE JUN 27 2017


NOTE: "FAIR" INDICATES FEW OR NO CLOUDS BELOW 12,000 FEET WITH NO
SIGNIFICANT WEATHER AND/OR OBSTRUCTIONS TO VISIBILITY. N/A MEANS
CURRENT SKY AND/OR WEATHER CONDITIONS ARE NOT AVAILABLE.

MNZ060>063-068>070-271800-
   Twin Cities Metro

CITY           SKY/WX    TMP DP  RH WIND       PRES   REMARKS
TWIN CITIES    PTSUNNY   72  42  34 S10       30.03F
ST PAUL        SUNNY     71  44  37 W8        30.03F
CRYSTAL        MOSUNNY   71  40  32 S13G22    30.02F
BLAINE         MOSUNNY   73  43  33 SW14      30.02F
LAKEVILLE      MOSUNNY   70  43  37 S10G16    30.04F
EDEN PRAIRIE   MOSUNNY   74  44  34 SW10      30.02F
SOUTH ST PAUL  SUNNY     72  41  33 SW7       30.03F
LAKE ELMO      FAIR      72  46  40 SW7       30.04F
$$
MNZ001>005-007-008-013>017-022>024-027-028-271800-
   Northwest Minnesota

CITY           SKY/WX    TMP DP  RH WIND       PRES   REMARKS
BEMIDJI        SUNNY     70  44  38 S15G22    29.92F
HALLOCK        PTSUNNY   73  45  35 S18G24    29.78F
ROSEAU         CLOUDY    72  48  43 SW18G25   29.84F
WARROAD        SUNNY     70  48  46 SW15G22   29.85F
THIEF RVR FALL CLOUDY    70  41  34 S21G26    29.85F
CROOKSTON      CLOUDY    72  45  37 S17G28    29.83F
FOSSTON        MOSUNNY   66  39  37 S24       29.89F
DETROIT LAKES  MOSUNNY   68  41  37 S16G23    29.93F
MOORHEAD       CLOUDY    72  41  33 S18G26    29.87F
PARK RAPIDS    MOSUNNY   70  40  33 S14G23    29.94F
MAHNOMEN       FAIR      70  42  36 SW20G25   29.89F
$$
MNZ006-009>011-018-025>026-271800-
   North Central Minnesota

CITY           SKY/WX    TMP DP  RH WIND       PRES   REMARKS
BAUDETTE       SUNNY     72  44  36 S16G22    29.87F
FLAG ISLAND    MOSUNNY   70  46  43 S10G20    29.84F
INTL FALLS     SUNNY     71  43  36 SW13G21   29.90F
WASKISH        SUNNY     70  46  43 S12G18    29.89F
BIG FORK       SUNNY     72  46  40 SW17G24   29.93F
LONGVILLE      SUNNY     70  45  40 S10G18    29.95F
GRAND RAPIDS   SUNNY     69  44  40 S13G20    29.98F
CRANE LAKE     SUNNY     66  45  45 S5        29.95F
ORR            SUNNY     70  41  35 W12G18    29.91F
COOK           MOSUNNY   70  43  37 S10G18    29.95F
WALKER         FAIR      68  44  41 S12G22    29.94F
$$
MNZ012-019>021-037-271800-
   Northeast Minnesota

CITY           SKY/WX    TMP DP  RH WIND       PRES   REMARKS
DULUTH         MOSUNNY   70  43  37 SW12G20   29.98F
ELY            SUNNY     68  39  34 SW13G18   29.96F
HIBBING        SUNNY     69  43  38 VRB7      29.96F
EVELETH        SUNNY     69  32  25 SW12      29.98F
DULUTH HARBOR  SUNNY     73  45  35 SW15      29.98F
TWO HARBORS    SUNNY     73  52  46 SW10G22   29.96F
SILVER BAY     SUNNY     73  45  35 SW6       29.95F
GRAND MARAIS     N/A     53  46  77 W10       29.95F
G MARAIS ARPRT MOSUNNY   68  43  40 SW9       29.97F
$$
MNZ029>031-032-039>041-046>048-054>057-064-271800-
   West Central Minnesota

CITY           SKY/WX    TMP DP  RH WIND       PRES   REMARKS
FERGUS FALLS   CLOUDY    70  43  37 S20       29.90F
WHEATON        PTSUNNY   70  39  32 S16       29.91F
MORRIS         MOSUNNY   73  43  33 S18       29.93F
ALEXANDRIA     MOSUNNY   70  42  36 S15       29.98F
ELBOW LAKE     FAIR      69  45  42 S17G23    29.94F
WADENA         CLOUDY    70  43  37 SW13G21   29.95F
GLENWOOD       CLOUDY    70  43  37 S16G24    29.98F
APPLETON       CLOUDY    72  39  30 S15       29.94F
BENSON         CLOUDY    72  41  33 SW14G21   29.97F
ORTONVILLE     CLOUDY    72  43  35 S16       29.92F
MADISON        MOSUNNY   73  45  35 S20       29.94F
WILLMAR        FAIR      72  43  35 S9G16     29.99F
$$
MNZ033>034-036-042>043-049>051-058-059-271800-
   Central Minnesota

CITY           SKY/WX    TMP DP  RH WIND       PRES   REMARKS
ST CLOUD       MOSUNNY   72  40  31 S18G24    30.00F
SAUK CENTRE    FAIR      71  44  37 S16G25    29.98F
PAYNESVILLE    CLOUDY    73  38  28 S15       30.00F
AITKIN         SUNNY     70  46  43 SW10      29.97F
PINE RIVER     SUNNY     70  45  40 SW10G17   29.99F
BRAINERD       SUNNY     70  41  34 SW15G23   29.98F
STAPLES        MOSUNNY   68  37  32 S14G20    29.97F
LONG PRAIRIE   FAIR      68  41  37 SE15      29.98F
LITTLE FALLS   MOSUNNY   70  36  28 S12G18    29.99F
LITCHFIELD     MOSUNNY   72  45  37 S6        30.02F
BUFFALO        PTSUNNY   71  38  30 S10       30.02F
MAPLE LAKE     PTSUNNY   73  44  34 S8G16     30.02F
HUTCHINSON     PTSUNNY   71  43  36 S10G17    30.03F
$$
MNZ037-044-045-052-053-271800-
   East Central Minnesota

CITY           SKY/WX    TMP DP  RH WIND       PRES   REMARKS
PRINCETON      SUNNY     73  43  33 S9G17     30.01F
MORA           MOSUNNY   70  45  40 S13G22    30.02F
CAMBRIDGE      SUNNY     73  50  43 SW14G20   30.00F
RUSH CITY      MOSUNNY   70  45  40 S8        30.02F
MOOSE LAKE     SUNNY     70  43  37 SW9       29.97F
HINCKLEY       FAIR      70  46  43 SW12G17   30.01F
CLOQUET        SUNNY     70  37  30 SW12      29.98F
MCGREGOR       SUNNY     68  43  40 SW9G16    29.99F
$$
MNZ071>073-080-081-089-090-097-098-271800-
   Southwest Minnesota

CITY           SKY/WX    TMP DP  RH WIND       PRES   REMARKS
MONTEVIDEO     MOSUNNY   72  43  35 SW14G23   29.97F
GRANITE FALLS  CLOUDY    73  43  34 S20G25    29.99F
CANBY          PTSUNNY   73  42  31 SW14G22   29.95F
MARSHALL       PTSUNNY   71  42  35 S22       29.97F
REDWOOD FALLS  SUNNY     73  40  30 S16G26    29.99F
OLIVIA         MOSUNNY   72  43  35 SW16      29.99F
PIPESTONE      SUNNY     72  45  37 SW18G25   29.98F
WINDOM         SUNNY     72  39  30 S13G21    30.02F
WORTHINGTON    SUNNY     70  46  42 S17       30.01F
JACKSON        SUNNY     70  37  30 S13G22    30.04F
TRACY          MOSUNNY   71  44  38 S18G24    29.99F
SLAYTON        SUNNY     69  42  37 S16G23    30.01F
$$
MNZ065>067-074>077-082>085-091>093-271800-
   South Central Minnesota

CITY           SKY/WX    TMP DP  RH WIND       PRES   REMARKS
MANKATO        MOSUNNY   70  40  33 S13       30.04F
NEW ULM        MOSUNNY   72  39  30 S14G21    30.02F
ST JAMES       SUNNY     72  41  33 S14G21    30.04F
FAIRMONT       SUNNY     70  43  37 S14G22    30.05F
GLENCOE        CLOUDY    71  46  39 S10G16    30.02F
FARIBAULT      SUNNY     72  43  35 S10G16    30.05F
OWATONNA       SUNNY     72  43  35 S13G18    30.05F
WASECA         MOSUNNY   72  43  35 S15       30.06F
ALBERT LEA     SUNNY     70  39  32 S12       30.06F
$$
MNZ078>079-086>088-094>096-271800-
   Southeast Minnesota

CITY           SKY/WX    TMP DP  RH WIND       PRES   REMARKS
ROCHESTER      SUNNY     71  43  36 S14       30.08F
RED WING       SUNNY     73  37  27 SW5       30.04F
STANTON        SUNNY     71  44  36 SW10      30.03F
DODGE CENTER   SUNNY     70  39  32 SW10G18   30.07F
WINONA         SUNNY     72  43  35 W5        30.07F
AUSTIN         SUNNY     70  43  37 S10       30.07F
PRESTON        SUNNY     69  40  35 S8        30.09F
$$
ABBREVIATIONS USED IN REMARKS
   TC - TEMPERATURES IN CELSIUS
  WCI - WIND CHILL INDEX
   HX - HEAT INDEX
  VSB - VISIBILITY
$$




USA.gov is the U.S. government's official web portal to all federal, state and local government web resources and services.